User: anonymous   Login
Location: Mentone
(34.5413°N, 85.5351°W)
Time: 15:29:00
(UTC-05:00)
Language:

Cosmos 2026 Rocket - Orbit

View from above orbital plane
View from above orbital plane
View from above satellite
View from above satellite

Ground track
Ground track

The orbit data is extracted from the following two-line orbital elements,

1 20046U 89042B   14297.17555606  .00000005  00000-0 -10119-4 0  3854
2 20046 082.9350 303.7622 0040851 258.8287 169.9449 13.77974875276074
Epoch (UTC): 24 October 2014 04:12:48
Eccentricity: 0.0040851
inclination: 82.9350°
perigee height: 941 km
apogee height: 1001 km
right ascension of ascending node: 303.7622°
argument of perigee: 258.8287°
revolutions per day: 13.77974875
mean anomaly at epoch: 169.9449°
orbit number at epoch: 27607

The dashed part of the orbit path shows where the satellite is in the earth's shadow,  

DLR